Weather History for Chattanooga, TN

Change the Weather History Date:

Friday, April 19, 2013

  Actual Average Record
Temperature  
Mean Temperature 60 °F 61 °F  
Max Temperature 74 °F 74 °F 91 °F (2002)
Min Temperature 45 °F 49 °F 29 °F (1983)
Degree Days  
Heating Degree Days 5 5  
Month to date heating degree days 100 133  
Since 1 July heating degree days 2967 3159  
Cooling Degree Days 0 1  
Month to date cooling degree days 34 19  
Year to date cooling degree days 39 26  
Growing Degree Days 4 (Base 50)    
Moisture  
Dew Point 50 °F    
Average Humidity 69    
Maximum Humidity 87    
Minimum Humidity 50    
Precipitation  
Precipitation 1.17 in 0.13 in 2.23 in (1911)
Month to date precipitation 5.67 2.55  
Year to date precipitation 24.06 17.28  
Snow  
Snow 0.00 in 0.00 in - ()
Month to date snowfall 0.0 0.1  
Since 1 July snowfall 0.3 3.9  
Snow Depth 0.00 in    
Sea Level Pressure  
Sea Level Pressure 29.86 in    
Wind  
Wind Speed 11 mph (WSW)    
Max Wind Speed 21 mph    
Max Gust Speed 32 mph    
Visibility 8 miles    
Events Rain , Thunderstorm    
T = Trace of Precipitation, MM = Missing Value Source: NWS Daily Summary

Daily Weather History Graph

Daily Weather History Graph

Search for Another Location

Airport:

Trip Planner

Search our weather history database for the weather conditions in past years. The results will help you decide how hot, cold, wet, or windy it might be!

Date:

Astronomy

Apr. 19, 2013 Rise Set
Actual Time 7:03 AM EDT 8:16 PM EDT
Civil Twilight 6:37 AM EDT 8:43 PM EDT
Nautical Twilight 6:05 AM EDT 9:14 PM EDT
Astronomical Twilight 5:33 AM EDT 9:47 PM EDT
Moon 2:14 PM EDT (4/19) 3:03 AM EDT (4/19)
Length of Visible Light 14h 06m
Length of Day
13h 13m
First Quarter, 61% of the Moon is Illuminated
Apr 19
First Quarter
Apr 25
Full
May 2
Last Quarter
May 9
New
May 18
First Quarter

Hourly Weather History & Observations

Time (EDT) Temp. Windchill Dew Point Humidity Pressure Visibility Wind Dir Wind Speed Gust Speed Precip Events Conditions
12:53 AM 73.9 °F - 57.9 °F 57% 29.76 in 10.0 mi SSE 13.8 mph 28.8 mph N/A   Clear
1:53 AM 73.9 °F - 60.1 °F 62% 29.73 in 10.0 mi SSE 18.4 mph 27.6 mph N/A   Clear
2:53 AM 73.9 °F - 61.0 °F 64% 29.71 in 10.0 mi South 17.3 mph 25.3 mph N/A   Overcast
3:53 AM 73.0 °F - 62.1 °F 68% 29.69 in 10.0 mi South 17.3 mph 26.5 mph N/A   Overcast
4:53 AM 73.0 °F - 62.1 °F 68% 29.67 in 10.0 mi South 19.6 mph 28.8 mph 0.00 in Rain Light Rain
5:42 AM 66.2 °F - 64.4 °F 94% 29.73 in 10.0 mi WSW 17.3 mph 24.2 mph 0.27 in Rain Heavy Rain
5:53 AM 66.0 °F - 64.0 °F 93% 29.70 in 5.0 mi SW 11.5 mph 23.0 mph 0.53 in Rain , Thunderstorm Heavy Thunderstorms and Rain
6:27 AM 66.2 °F - 64.4 °F 94% 29.72 in 5.0 mi South 8.1 mph - 0.25 in Rain Rain
6:39 AM 66.2 °F - 62.6 °F 88% 29.74 in 6.0 mi South 10.4 mph - 0.27 in Rain Rain
6:53 AM 66.0 °F - 64.0 °F 93% 29.73 in 6.0 mi South 8.1 mph - 0.36 in Rain Rain
7:18 AM 64.4 °F - 62.6 °F 94% 29.76 in 4.0 mi SW 9.2 mph - 0.07 in Rain Rain
7:37 AM 62.6 °F - 60.8 °F 94% 29.78 in 7.0 mi WNW 17.3 mph 24.2 mph 0.10 in Rain Light Rain
7:53 AM 59.0 °F - 55.9 °F 90% 29.79 in 4.0 mi West 11.5 mph - 0.12 in Rain Light Rain
8:53 AM 57.0 °F - 54.0 °F 89% 29.82 in 4.0 mi West 10.4 mph - 0.08 in Rain Light Rain
9:53 AM 55.0 °F - 51.1 °F 86% 29.84 in 6.0 mi WSW 9.2 mph - 0.04 in Rain Rain
10:53 AM 54.0 °F - 50.0 °F 86% 29.88 in 10.0 mi West 8.1 mph - 0.04 in   Overcast
11:53 AM 54.0 °F - 46.0 °F 75% 29.91 in 10.0 mi West 15.0 mph 20.7 mph N/A   Overcast
12:53 PM 53.1 °F - 46.0 °F 77% 29.93 in 10.0 mi West 11.5 mph 19.6 mph N/A   Overcast
1:53 PM 51.1 °F - 43.0 °F 74% 29.94 in 10.0 mi West 12.7 mph - N/A   Overcast
2:53 PM 52.0 °F - 41.0 °F 66% 29.94 in 10.0 mi WNW 12.7 mph - N/A   Overcast
4:53 PM 54.0 °F - 37.9 °F 55% 29.93 in 10.0 mi West 8.1 mph - N/A   Mostly Cloudy
5:00 PM 53.6 °F - 39.2 °F 58% 29.96 in 10.0 mi WNW 11.5 mph - N/A   Mostly Cloudy
5:53 PM 54.0 °F - 37.9 °F 55% 29.94 in 10.0 mi WNW 8.1 mph - N/A   Mostly Cloudy
6:53 PM 54.0 °F - 36.0 °F 51% 29.97 in 10.0 mi West 10.4 mph 19.6 mph N/A   Mostly Cloudy
7:53 PM 52.0 °F - 36.0 °F 54% 29.99 in 10.0 mi WNW 6.9 mph - N/A   Mostly Cloudy
8:53 PM 50.0 °F - 34.0 °F 54% 30.03 in 10.0 mi WNW 6.9 mph - N/A   Scattered Clouds
9:53 PM 48.9 °F - 34.0 °F 56% 30.06 in 10.0 mi NW 9.2 mph - N/A   Scattered Clouds
10:53 PM 48.0 °F - 33.1 °F 56% 30.11 in 10.0 mi NW 8.1 mph - N/A   Scattered Clouds
11:53 PM 45.0 °F 41.2 °F 33.1 °F 63% 30.13 in 10.0 mi NW 6.9 mph - N/A   Scattered Clouds